"Platform","Muskegon M20 ReCON Buoy"
"NDBC ID","45161"
"Latitude (deg)",43.18055
"Longitude (deg)",-86.35653
"Water Depth (m)",22
"Sensor Device","Cisco AP1242AG WiFi Radio"
"Sensor Type","Received Signal Level (RSL) at base station"
"Sensor Units","decibels per milliwatt"
"Measurement","A sample"
"Time means","Time at sample (UTC time zone)"

"Note:","This data was collected for research purposes."
"Note:","Minimal quality checking has been performed so data may contain known or unknown errors."
"Note:","Data provided by NOAA. Please credit NOAA."
"Note:","For more info see www.glerl.noaa.gov/res/recon"

"Time (UTC)","RSL"
"YYYY/MM/DD HH:MM","dBm"
2015/05/05 14:01, -59
2015/05/05 14:21, -59
2015/05/05 14:41, -59
2015/05/05 15:01, -59
2015/05/05 15:21, -59
2015/05/05 15:41, -58
2015/05/05 16:01, -62
2015/05/05 16:21, -59
2015/05/05 16:41, -60
2015/05/05 17:01, -59
2015/05/05 17:21, -59
2015/05/05 17:41, -59
2015/05/05 18:01, -60
2015/05/05 18:21, -59
2015/05/05 18:41, -59
2015/05/05 19:01, -60
2015/05/05 19:22, -56
2015/05/05 19:41, -58
2015/05/05 20:02, -57
2015/05/05 20:22, -55
2015/05/05 20:41, -58
2015/05/05 21:02, -56
2015/05/05 21:21, -59
2015/05/05 21:41, -58
2015/05/05 22:01, -58
2015/05/05 22:21, -59
2015/05/05 22:41, -60
2015/05/05 23:01, -58
2015/05/05 23:21, -60
2015/05/05 23:41, -59
2015/05/06 00:02, -60
2015/05/06 00:23, -58
2015/05/06 00:42, -61
2015/05/06 01:03, -62
2015/05/06 01:23, -64
2015/05/06 01:42, -65
2015/05/06 02:03, -66
2015/05/06 02:23, -56
2015/05/06 02:42, -58
2015/05/06 03:03, -60
2015/05/06 03:23, -57
2015/05/06 03:42, -59
2015/05/06 04:03, -59
2015/05/06 04:23, -59
2015/05/06 04:42, -61
2015/05/06 05:03, -59
2015/05/06 05:23, -60
2015/05/06 05:42, -58
2015/05/06 06:03, -59
2015/05/06 06:23, -57
2015/05/06 06:42, -60
2015/05/06 07:03, -56
2015/05/06 07:23, -58
2015/05/06 07:42, -59
2015/05/06 08:05, -57
2015/05/06 08:23, -57
2015/05/06 08:42, -59
2015/05/06 09:03, -58
2015/05/06 09:23, -59
2015/05/06 09:42, -59
2015/05/06 10:03, -56
2015/05/06 10:23, -57
2015/05/06 10:42, -60
2015/05/06 11:03, -57
2015/05/06 11:23, -60
2015/05/06 11:42, -59
2015/05/06 12:03, -59
2015/05/06 12:23, -56
2015/05/06 12:42, -58
2015/05/06 13:03, -56
2015/05/06 13:23, -59
2015/05/06 13:42, -61
2015/05/06 14:03, -56
2015/05/06 14:23, -57
2015/05/06 14:42, -59
2015/05/06 15:03, -58
2015/05/06 15:23, -57
2015/05/06 15:41, -59
2015/05/06 16:02, -59
2015/05/06 16:21, -59
2015/05/06 16:41, -59
2015/05/06 17:01, -71
2015/05/06 17:21, -69
2015/05/06 17:41, -69
2015/05/06 18:01, -72
2015/05/06 18:21, -68
2015/05/06 18:41, -64
2015/05/06 19:02, -66
2015/05/06 19:21, -67
2015/05/06 19:41, -71
2015/05/06 20:02, -65
2015/05/06 20:23, -62
2015/05/06 20:42, -61
2015/05/06 21:03, -60
2015/05/06 21:23, -62
2015/05/06 21:42, -61
2015/05/06 22:03, -63
2015/05/06 22:23, -65
2015/05/06 22:42, -66
2015/05/06 23:03, -63
2015/05/06 23:23, -66
2015/05/06 23:42, -68
2015/05/07 00:03, -62
2015/05/07 00:23, -67
2015/05/07 00:41, -67
2015/05/07 01:03, -67
2015/05/07 01:23, -61
2015/05/07 01:42, -67
2015/05/07 02:03, -64
2015/05/07 02:23, -65
2015/05/07 02:42, -62
2015/05/07 03:03, -62
2015/05/07 03:23, -59
2015/05/07 03:42, -60
2015/05/07 04:03, -59
2015/05/07 04:23, -60
2015/05/07 04:42, -60
2015/05/07 05:03, -60
2015/05/07 05:23, -61
2015/05/07 05:42, -63
2015/05/07 06:03, -62
2015/05/07 06:23, -64
2015/05/07 06:42, -62
2015/05/07 07:03, -61
2015/05/07 07:24, -63
2015/05/07 07:42, -65
2015/05/07 08:03, -63
2015/05/07 08:23, -66
2015/05/07 08:42, -65
2015/05/07 09:03, -61
2015/05/07 09:23, -61
2015/05/07 09:42, -65
2015/05/07 10:03, -63
2015/05/07 10:23, -60
2015/05/07 10:42, -62
2015/05/07 11:03, -59
2015/05/07 11:23, -63
2015/05/07 11:42, -63
2015/05/07 12:03, -63
2015/05/07 12:23, -64
2015/05/07 12:42, -64
2015/05/07 13:03, -63
2015/05/07 13:23, -64
2015/05/07 13:42, -71
2015/05/07 14:03, -64
2015/05/07 14:23, -64
2015/05/07 14:42, -63
2015/05/07 15:03, -66
2015/05/07 15:21, -63
2015/05/07 15:41, -68
2015/05/07 16:02, -63
2015/05/07 16:21, -65
2015/05/07 16:41, -67
2015/05/07 17:01, -65
2015/05/07 17:21, -62
2015/05/07 17:41, -65
2015/05/07 18:01, -66
2015/05/07 18:21, -61
2015/05/07 18:41, -61
2015/05/07 19:01, -60
2015/05/07 19:21, -66
2015/05/07 19:41, -65
2015/05/07 20:02, -65
2015/05/07 20:21, -61
2015/05/07 20:41, -59
2015/05/07 21:01, -62
2015/05/07 21:22, -60
2015/05/07 21:41, -61
2015/05/07 22:02, -62
2015/05/07 22:21, -61
2015/05/07 22:41, -61
2015/05/07 23:01, -60
2015/05/07 23:21, -66
2015/05/07 23:41, -66
2015/05/08 00:02, -66
2015/05/08 00:21, -67
2015/05/08 00:41, -66
2015/05/08 01:02, -64
2015/05/08 01:23, -65
2015/05/08 01:42, -68
2015/05/08 02:03, -63
2015/05/08 02:23, -67
2015/05/08 02:42, -65
2015/05/08 03:03, -67
2015/05/08 03:23, -70
2015/05/08 03:42, -69
2015/05/08 04:03, -68
2015/05/08 04:23, -66
2015/05/08 04:42, -69
2015/05/08 05:03, -67
2015/05/08 05:23, -61
2015/05/08 05:42, -59
2015/05/08 06:03, -64
2015/05/08 06:23, -66
2015/05/08 06:42, -64
2015/05/08 07:03, -69
2015/05/08 07:23, -69
2015/05/08 07:42, -66
2015/05/08 08:03, -69
2015/05/08 08:23, -66
2015/05/08 08:42, -68
2015/05/08 09:03, -66
2015/05/08 09:23, -68
2015/05/08 09:42, -68
2015/05/08 10:03, -69
2015/05/08 10:23, -69
2015/05/08 10:42, -65
2015/05/08 11:03, -66
2015/05/08 11:23, -68
2015/05/08 11:42, -70
2015/05/08 12:03, -68
2015/05/08 12:23, -68
2015/05/08 12:42, -66
2015/05/08 13:03, -67
2015/05/08 13:23, -67
2015/05/08 13:42, -70
2015/05/08 14:03, -60
2015/05/08 14:23, -68
2015/05/08 14:42, -67
2015/05/08 15:03, -65
2015/05/08 15:23, -68
2015/05/08 15:42, -71
2015/05/08 16:03, -70
2015/05/08 16:23, -67
2015/05/08 16:42, -66
2015/05/08 17:03, -65
2015/05/08 17:23, -68
2015/05/08 17:41, -70
2015/05/08 18:03, -64
2015/05/08 18:23, -65
2015/05/08 18:42, -69
2015/05/08 19:03, -64
2015/05/08 19:23, -62
2015/05/08 19:41, -66
2015/05/08 20:03, -66
2015/05/08 20:23, -62
2015/05/08 20:42, -63
2015/05/08 21:03, -62
2015/05/08 21:23, -60
2015/05/08 21:42, -62
2015/05/08 22:03, -63
2015/05/08 22:23, -63
2015/05/08 22:42, -65
2015/05/08 23:03, -62
2015/05/08 23:23, -65
2015/05/08 23:41, -63
2015/05/09 00:03, -61
2015/05/09 00:23, -62
2015/05/09 00:42, -66
2015/05/09 01:03, -61
2015/05/09 01:23, -66
2015/05/09 01:42, -70
2015/05/09 02:03, -70
2015/05/09 02:23, -69
2015/05/09 02:42, -62
2015/05/09 03:03, -63
2015/05/09 03:23, -68
2015/05/09 03:42, -67
2015/05/09 04:03, -69
2015/05/09 04:23, -62
2015/05/09 04:42, -62
2015/05/09 05:03, -58
2015/05/09 05:23, -60
2015/05/09 05:42, -62
2015/05/09 06:03, -62
2015/05/09 06:23, -61
2015/05/09 06:42, -59
2015/05/09 07:03, -61
2015/05/09 07:24, -60
2015/05/09 07:42, -59
2015/05/09 08:04, -61
2015/05/09 08:23, -59
2015/05/09 08:42, -66
2015/05/09 09:03, -59
2015/05/09 09:23, -61
2015/05/09 09:42, -63
2015/05/09 10:03, -64
2015/05/09 10:23, -58
2015/05/09 10:42, -59
2015/05/09 11:03, -63
2015/05/09 11:23, -59
2015/05/09 11:41, -65
2015/05/09 12:03, -61
2015/05/09 12:23, -58
2015/05/09 12:42, -62
2015/05/09 13:03, -63
2015/05/09 13:23, -66
2015/05/09 13:42, -66
2015/05/09 14:03, -66
2015/05/09 14:23, -61
2015/05/09 14:42, -68
2015/05/09 15:03, -60
2015/05/09 15:23, -61
2015/05/09 15:42, -59
2015/05/09 16:03, -62
2015/05/09 16:23, -57
2015/05/09 16:42, -60
2015/05/09 17:03, -65
2015/05/09 17:23, -62
2015/05/09 17:41, -62
2015/05/09 18:03, -60
2015/05/09 18:43, -60
2015/05/09 19:03, -57
2015/05/09 19:23, -63
2015/05/09 19:42, -58
2015/05/09 20:03, -64
2015/05/09 20:23, -58
2015/05/09 20:42, -59
2015/05/09 21:03, -59
2015/05/09 21:23, -58
2015/05/09 21:42, -62
2015/05/09 22:03, -68
2015/05/09 22:23, -62
2015/05/09 22:42, -64
2015/05/09 23:03, -60
2015/05/09 23:23, -58
2015/05/09 23:42, -64
2015/05/10 00:03, -61
2015/05/10 00:23, -62
2015/05/10 00:42, -66
2015/05/10 01:03, -60
2015/05/10 01:23, -61
2015/05/10 01:42, -62
2015/05/10 02:04, -67
2015/05/10 02:23, -61
2015/05/10 02:42, -67
2015/05/10 03:03, -64
2015/05/10 03:24, -60
2015/05/10 03:42, -63
2015/05/10 04:04, -72
2015/05/10 04:23, -67
2015/05/10 04:42, -68
2015/05/10 05:03, -70
2015/05/10 05:24, -62
2015/05/10 05:42, -58
2015/05/10 06:04, -60
2015/05/10 06:23, -58
2015/05/10 06:42, -59
2015/05/10 07:03, -58
2015/05/10 07:24, -60
2015/05/10 07:42, -58
2015/05/10 08:04, -58
2015/05/10 08:23, -57
2015/05/10 08:42, -59
2015/05/10 09:03, -59
2015/05/10 09:24, -58
2015/05/10 09:42, -61
2015/05/10 10:03, -57
2015/05/10 10:23, -57
2015/05/10 10:42, -59
2015/05/10 11:03, -58
2015/05/10 11:23, -58
2015/05/10 11:42, -63
2015/05/10 12:03, -57
2015/05/10 12:23, -57
2015/05/10 12:42, -58
2015/05/10 13:03, -57
2015/05/10 13:23, -61
2015/05/10 13:42, -60
2015/05/10 14:03, -58
2015/05/10 14:23, -58
2015/05/10 14:42, -61
2015/05/10 15:03, -57
2015/05/10 15:23, -61
2015/05/10 15:42, -63
2015/05/10 16:04, -62
2015/05/10 16:23, -59
2015/05/10 16:42, -59
2015/05/10 17:03, -58
2015/05/10 17:23, -59
2015/05/10 17:42, -60
2015/05/10 18:03, -59
2015/05/10 18:23, -57
2015/05/10 18:42, -61
2015/05/10 19:03, -60
2015/05/10 19:23, -60
2015/05/10 19:42, -59
2015/05/10 20:04, -58
2015/05/10 20:23, -58
2015/05/10 20:42, -59
2015/05/10 21:03, -58
2015/05/10 21:23, -59
2015/05/10 21:42, -60
2015/05/10 22:04, -63
2015/05/10 22:23, -57
2015/05/10 22:42, -58
2015/05/10 23:03, -58
2015/05/10 23:23, -58
2015/05/10 23:42, -59
2015/05/11 00:03, -57
2015/05/11 00:23, -61
2015/05/11 00:42, -61
2015/05/11 01:03, -59
2015/05/11 01:23, -58
2015/05/11 01:42, -59
2015/05/11 02:04, -58
2015/05/11 02:23, -59
2015/05/11 02:42, -59
2015/05/11 03:03, -58
2015/05/11 03:24, -59
2015/05/11 03:42, -58
2015/05/11 04:04, -60
2015/05/11 04:23, -57
2015/05/11 04:42, -58
2015/05/11 05:03, -57
2015/05/11 05:24, -59
2015/05/11 05:42, -61
2015/05/11 06:04, -60
2015/05/11 06:23, -59
2015/05/11 06:42, -58
2015/05/11 07:03, -58
2015/05/11 07:24, -58
2015/05/11 07:42, -63
2015/05/11 08:04, -59
2015/05/11 08:23, -57
2015/05/11 08:42, -61
2015/05/11 09:03, -57
2015/05/11 09:24, -61
2015/05/11 09:42, -60
2015/05/11 10:04, -63
2015/05/11 10:23, -60
2015/05/11 10:42, -60
2015/05/11 11:03, -64
2015/05/11 11:24, -63
2015/05/11 11:41, -68
2015/05/11 12:04, -69
2015/05/11 12:23, -65
2015/05/11 12:42, -61
2015/05/11 13:03, -61
2015/05/11 13:24, -64
2015/05/11 13:42, -64
2015/05/11 14:04, -68
2015/05/11 14:23, -68
2015/05/11 14:42, -68
2015/05/11 15:03, -68
2015/05/11 15:24, -67
2015/05/11 15:42, -70
2015/05/11 16:04, -71
2015/05/11 16:23, -66
2015/05/11 16:42, -66
2015/05/11 17:01, -67
2015/05/11 17:21, -68
2015/05/11 17:41, -69
2015/05/11 18:01, -70
2015/05/11 18:21, -67
2015/05/11 18:41, -69
2015/05/11 19:02, -67
2015/05/11 19:21, -69
2015/05/11 19:41, -70
2015/05/11 20:02, -68
2015/05/11 20:21, -67
2015/05/11 20:41, -67
2015/05/11 21:01, -71
2015/05/11 21:22, -66
2015/05/11 21:41, -67
2015/05/11 22:02, -67
2015/05/11 22:21, -69
2015/05/11 22:41, -67
2015/05/11 23:01, -67
2015/05/11 23:21, -67
2015/05/11 23:41, -66
2015/05/12 00:01, -67
2015/05/12 00:21, -67
2015/05/12 00:41, -67
2015/05/12 01:01, -68
2015/05/12 01:21, -65
2015/05/12 01:42, -68
2015/05/12 02:02, -69
2015/05/12 02:22, -68
2015/05/12 02:42, -69
2015/05/12 03:02, -66
2015/05/12 03:22, -73
2015/05/12 03:42, -67
2015/05/12 04:02, -65
2015/05/12 04:22, -58
2015/05/12 04:42, -69
2015/05/12 05:02, -68
2015/05/12 05:22, -66
2015/05/12 05:42, -70
2015/05/12 06:02, -66
2015/05/12 06:22, -68
2015/05/12 06:42, -64
2015/05/12 07:02, -64
2015/05/12 07:22, -66
2015/05/12 07:42, -67
2015/05/12 08:02, -65
2015/05/12 08:25, -66
2015/05/12 08:42, -72
2015/05/12 09:04, -71
2015/05/12 09:23, -79
2015/05/12 09:43, -71
2015/05/12 10:05, -70
2015/05/12 10:24, -66
2015/05/12 10:42, -73
2015/05/12 11:04, -75
2015/05/12 11:23, -81
2015/05/12 11:43, -76
2015/05/12 12:03, -74
2015/05/12 12:24, -71
2015/05/12 12:42, -70
2015/05/12 13:04, -70
2015/05/12 13:24, -72
2015/05/12 13:43, -63
2015/05/12 14:03, -65
2015/05/12 14:24, -70
2015/05/12 14:42, -79
2015/05/12 15:04, -66
2015/05/12 15:23, -66
2015/05/12 15:43, -69
2015/05/12 16:03, -64
2015/05/12 16:21, -68
2015/05/12 16:41, -70
2015/05/12 17:01, -68
2015/05/12 17:21, -69
2015/05/12 17:41, -66
2015/05/12 18:02, -65
2015/05/12 18:23, -67
2015/05/12 18:42, -69
2015/05/12 19:02, -74
2015/05/12 19:21, -67
2015/05/12 19:41, -66
2015/05/12 20:02, -71
2015/05/12 20:22, -68
2015/05/12 20:42, -69
2015/05/12 21:02, -66
2015/05/12 21:23, -67
2015/05/12 21:43, -72
2015/05/12 22:03, -64
2015/05/12 22:24, -68
2015/05/12 22:42, -69
2015/05/12 23:04, -69
2015/05/12 23:23, -62
2015/05/12 23:43, -69
2015/05/13 00:03, -66
2015/05/13 00:24, -64
2015/05/13 00:42, -69
2015/05/13 01:04, -69
2015/05/13 01:23, -67
2015/05/13 01:43, -71
2015/05/13 02:03, -64
2015/05/13 02:24, -66
2015/05/13 02:42, -59
2015/05/13 03:05, -61
2015/05/13 03:23, -62
2015/05/13 03:43, -59
2015/05/13 04:03, -57
2015/05/13 04:24, -59
2015/05/13 04:42, -58
2015/05/13 05:05, -65
2015/05/13 05:23, -57
2015/05/13 05:43, -58
2015/05/13 06:03, -59
2015/05/13 06:24, -59
2015/05/13 06:42, -63
2015/05/13 07:05, -61
2015/05/13 07:23, -57
2015/05/13 07:43, -63
2015/05/13 08:03, -59
2015/05/13 08:24, -61
2015/05/13 08:42, -62
2015/05/13 09:05, -58
2015/05/13 09:23, -60
2015/05/13 09:43, -63
2015/05/13 10:03, -64
2015/05/13 10:24, -68
2015/05/13 10:42, -61
2015/05/13 11:04, -62
2015/05/13 11:23, -59
2015/05/13 11:43, -62
2015/05/13 12:03, -58
2015/05/13 12:24, -60
2015/05/13 12:42, -59
2015/05/13 13:04, -59
2015/05/13 13:24, -59
2015/05/13 13:43, -58
2015/05/13 14:03, -56
2015/05/13 14:24, -60
2015/05/13 14:42, -59
2015/05/13 15:05, -60
2015/05/13 15:22, -59
2015/05/13 15:42, -58
2015/05/13 16:02, -61
2015/05/13 16:21, -63
2015/05/13 16:42, -60
2015/05/13 17:02, -61
2015/05/13 17:21, -62
2015/05/13 17:43, -64
2015/05/13 18:02, -60
2015/05/13 18:06, -59
2015/05/13 18:24, -61
2015/05/13 18:44, -62
2015/05/13 19:04, -61
2015/05/13 19:23, -58
2015/05/13 19:44, -62
2015/05/13 20:04, -60
2015/05/13 20:22, -65
2015/05/13 20:46, -61
2015/05/13 21:02, -62
2015/05/13 21:23, -58
2015/05/13 21:42, -61
2015/05/13 22:05, -60
2015/05/13 22:23, -59
2015/05/13 22:43, -62
2015/05/13 23:03, -57
2015/05/13 23:24, -60
2015/05/13 23:42, -61
2015/05/14 00:05, -57
2015/05/14 00:23, -57
2015/05/14 00:43, -60
2015/05/14 01:03, -57
2015/05/14 01:24, -59
2015/05/14 01:42, -58
2015/05/14 02:05, -61
2015/05/14 02:23, -63
2015/05/14 02:43, -63
2015/05/14 03:03, -59
2015/05/14 03:25, -61
2015/05/14 03:42, -61
2015/05/14 04:05, -61
2015/05/14 04:23, -60
2015/05/14 04:43, -63
2015/05/14 05:03, -58
2015/05/14 05:24, -59
2015/05/14 05:42, -59
2015/05/14 06:05, -63
2015/05/14 06:23, -59
2015/05/14 06:43, -57
2015/05/14 07:03, -57
2015/05/14 07:25, -61
2015/05/14 07:42, -59
2015/05/14 08:05, -58
2015/05/14 08:23, -58
2015/05/14 08:43, -63
2015/05/14 09:03, -60
2015/05/14 09:25, -62
2015/05/14 09:42, -60
2015/05/14 10:05, -61
2015/05/14 10:23, -60
2015/05/14 10:43, -61
2015/05/14 11:03, -59
2015/05/14 11:25, -61
2015/05/14 11:42, -62
2015/05/14 12:22, -62
2015/05/14 12:42, -61
2015/05/14 13:02, -66
2015/05/14 13:23, -65
2015/05/14 13:42, -69
2015/05/14 14:02, -62
2015/05/14 14:22, -67
2015/05/14 14:41, -64
2015/05/14 15:02, -61
2015/05/14 15:22, -66
2015/05/14 15:42, -68
2015/05/14 16:02, -62
2015/05/14 16:21, -66
2015/05/14 16:42, -68
2015/05/14 17:02, -63
2015/05/14 17:24, -65
2015/05/14 17:45, -68
2015/05/14 18:03, -64
2015/05/14 18:25, -62
2015/05/14 18:42, -66
2015/05/14 19:05, -66
2015/05/14 19:21, -66
2015/05/14 19:41, -67
2015/05/14 20:02, -60
2015/05/14 20:21, -62
2015/05/14 20:41, -63
2015/05/14 21:02, -66
2015/05/14 21:23, -65
2015/05/14 21:42, -60
2015/05/14 22:02, -67
2015/05/14 22:21, -67
2015/05/14 22:41, -69
2015/05/14 23:02, -71
2015/05/14 23:21, -69
2015/05/14 23:41, -66
2015/05/15 00:02, -68
2015/05/15 00:21, -70
2015/05/15 00:41, -66
2015/05/15 01:02, -68
2015/05/15 01:25, -66
2015/05/15 01:42, -68
2015/05/15 02:02, -71
2015/05/15 02:22, -67
2015/05/15 02:42, -68
2015/05/15 03:02, -67
2015/05/15 03:22, -68
2015/05/15 03:42, -70
2015/05/15 04:02, -67
2015/05/15 04:22, -71
2015/05/15 04:42, -67
2015/05/15 05:02, -67
2015/05/15 05:25, -66
2015/05/15 05:42, -64
2015/05/15 06:06, -71
2015/05/15 06:23, -66
2015/05/15 06:44, -66
2015/05/15 07:03, -64
2015/05/15 07:25, -68
2015/05/15 07:42, -71
2015/05/15 08:05, -66
2015/05/15 08:23, -65
2015/05/15 08:44, -66
2015/05/15 09:03, -63
2015/05/15 09:25, -65
2015/05/15 09:42, -67
2015/05/15 10:05, -68
2015/05/15 10:23, -65
2015/05/15 10:43, -66
2015/05/15 11:03, -67
2015/05/15 11:25, -68
2015/05/15 11:43, -69
2015/05/15 12:05, -70
2015/05/15 12:23, -68
2015/05/15 12:43, -65
2015/05/15 13:03, -65
2015/05/15 13:25, -73
2015/05/15 13:42, -66
2015/05/15 14:05, -66
2015/05/15 14:23, -65
2015/05/15 14:43, -66
2015/05/15 15:03, -67
2015/05/15 15:25, -67
2015/05/15 15:43, -65
2015/05/15 16:05, -68
2015/05/15 16:23, -72
2015/05/15 16:43, -65
2015/05/15 17:03, -64
2015/05/15 17:25, -79
2015/05/15 17:42, -66
2015/05/15 18:05, -68
2015/05/15 18:23, -66
2015/05/15 18:43, -67
2015/05/15 19:03, -65
2015/05/15 19:25, -68
2015/05/15 19:42, -65
2015/05/15 20:05, -66
2015/05/15 20:23, -66
2015/05/15 20:44, -70
2015/05/15 21:03, -68
2015/05/15 21:25, -68
2015/05/15 21:42, -67
2015/05/15 22:05, -64
2015/05/15 22:23, -64
2015/05/15 22:43, -64
2015/05/15 23:03, -66
2015/05/15 23:25, -69
2015/05/15 23:41, -68
2015/05/16 00:05, -64
2015/05/16 00:23, -68
2015/05/16 00:44, -72
2015/05/16 01:03, -67
2015/05/16 01:25, -69
2015/05/16 01:42, -68
2015/05/16 02:06, -71
2015/05/16 02:23, -67
2015/05/16 02:44, -67
2015/05/16 03:03, -68
2015/05/16 03:25, -68
2015/05/16 03:42, -69
2015/05/16 04:06, -70
2015/05/16 04:23, -65
2015/05/16 04:44, -70
2015/05/16 05:03, -71
2015/05/16 05:25, -70
2015/05/16 05:42, -69
2015/05/16 06:06, -72
2015/05/16 06:23, -67
2015/05/16 06:44, -65
2015/05/16 07:03, -68
2015/05/16 07:25, -71
2015/05/16 07:42, -71
2015/05/16 08:06, -70
2015/05/16 08:23, -69
2015/05/16 08:44, -72
2015/05/16 09:03, -72
2015/05/16 09:25, -69
2015/05/16 09:42, -65
2015/05/16 10:06, -68
2015/05/16 10:23, -67
2015/05/16 10:44, -73
2015/05/16 11:03, -65
2015/05/16 11:25, -69
2015/05/16 11:42, -69
2015/05/16 12:05, -68
2015/05/16 12:23, -70
2015/05/16 12:44, -70
2015/05/16 13:03, -68
2015/05/16 13:25, -71
2015/05/16 13:42, -71
2015/05/16 14:05, -74
2015/05/16 14:23, -69
2015/05/16 14:44, -71
2015/05/16 15:03, -71
2015/05/16 15:25, -77
2015/05/16 15:42, -71
2015/05/16 16:05, -72
2015/05/16 16:23, -68
2015/05/16 16:44, -73
2015/05/16 17:03, -70
2015/05/16 17:25, -69
2015/05/16 17:41, -70
2015/05/16 18:05, -68
2015/05/16 18:23, -70
2015/05/16 18:44, -66
2015/05/16 19:03, -68
2015/05/16 19:25, -70
2015/05/16 19:42, -70
2015/05/16 20:06, -69
2015/05/16 20:23, -67
2015/05/16 20:44, -67
2015/05/16 21:03, -67
2015/05/16 21:25, -69
2015/05/16 21:42, -69
2015/05/16 22:06, -67
2015/05/16 22:23, -68
2015/05/16 22:44, -72
2015/05/16 23:03, -66
2015/05/16 23:25, -68
2015/05/16 23:41, -70
2015/05/17 00:06, -71
2015/05/17 00:23, -69
2015/05/17 00:44, -69
2015/05/17 01:03, -70
2015/05/17 01:25, -71
2015/05/17 01:42, -72
2015/05/17 02:06, -68
2015/05/17 02:23, -67
2015/05/17 02:44, -68
2015/05/17 03:03, -69
2015/05/17 03:26, -68
2015/05/17 03:42, -67
2015/05/17 04:06, -70
2015/05/17 04:23, -69
2015/05/17 04:44, -70
2015/05/17 05:03, -69
2015/05/17 05:25, -71
2015/05/17 05:42, -74
2015/05/17 06:06, -70
2015/05/17 06:23, -70
2015/05/17 06:44, -71
2015/05/17 07:03, -74
2015/05/17 07:26, -72
2015/05/17 07:42, -72
2015/05/17 08:06, -73
2015/05/17 08:23, -77
2015/05/17 08:44, -75
2015/05/17 09:03, -72
2015/05/17 09:26, -74
2015/05/17 09:42, -74
2015/05/17 10:06, -69
2015/05/17 10:23, -69
2015/05/17 10:44, -72
2015/05/17 11:03, -69
2015/05/17 11:25, -68
2015/05/17 11:43, -68
2015/05/17 12:06, -72
2015/05/17 12:23, -71
2015/05/17 12:44, -73
2015/05/17 13:03, -68
2015/05/17 13:26, -69
2015/05/17 13:42, -70
2015/05/17 14:06, -69
2015/05/17 14:23, -67
2015/05/17 14:44, -68
2015/05/17 15:03, -68
2015/05/17 15:26, -70
2015/05/17 16:03, -67
2015/05/17 16:26, -68
2015/05/17 16:42, -68
2015/05/17 17:06, -70
2015/05/17 17:23, -70
2015/05/17 17:44, -69
2015/05/17 18:03, -69
2015/05/17 18:26, -69
2015/05/17 18:42, -68
2015/05/17 19:06, -66
2015/05/17 19:23, -65
2015/05/17 19:44, -67
2015/05/17 20:03, -64
2015/05/17 20:26, -69
2015/05/17 20:42, -68
2015/05/17 21:06, -71
2015/05/17 21:26, -70
2015/05/17 22:03, -69
2015/05/17 22:26, -70
2015/05/17 22:42, -69
2015/05/17 23:06, -67
2015/05/17 23:23, -65
2015/05/17 23:44, -68
2015/05/18 00:03, -65
2015/05/18 00:26, -67
2015/05/18 00:42, -71
2015/05/18 01:06, -66
2015/05/18 01:23, -68
2015/05/18 01:44, -67
2015/05/18 02:03, -79
2015/05/18 02:26, -65
2015/05/18 02:42, -74
2015/05/18 03:06, -69
2015/05/18 03:23, -67
2015/05/18 03:45, -67
2015/05/18 04:03, -70
2015/05/18 04:24, -68
2015/05/18 04:42, -68
2015/05/18 05:06, -66
2015/05/18 05:23, -64
2015/05/18 06:03, -74
2015/05/18 06:26, -67
2015/05/18 06:42, -74
2015/05/18 07:06, -66
2015/05/18 07:23, -66
2015/05/18 08:03, -67
2015/05/18 08:26, -70
2015/05/18 08:42, -67
2015/05/18 09:06, -68
2015/05/18 09:23, -64
2015/05/18 09:45, -66
2015/05/18 10:03, -67
2015/05/18 10:26, -69
2015/05/18 10:42, -66
2015/05/18 11:06, -68
2015/05/18 11:26, -68
2015/05/18 12:03, -66
2015/05/18 12:26, -69
2015/05/18 12:42, -69
2015/05/18 13:06, -66
2015/05/18 13:23, -66
2015/05/18 13:45, -76
2015/05/18 14:03, -69
2015/05/18 14:26, -68
2015/05/18 14:42, -67
2015/05/18 15:06, -77
2015/05/18 15:26, -65
2015/05/18 16:03, -66
2015/05/18 16:26, -66
2015/05/18 16:42, -67
2015/05/18 17:06, -73
2015/05/18 17:23, -66
2015/05/18 17:45, -68
2015/05/18 18:03, -68
2015/05/18 18:26, -70
2015/05/18 18:42, -69
2015/05/18 19:06, -74
2015/05/18 19:23, -66
2015/05/18 19:45, -68
2015/05/18 20:03, -65
2015/05/18 20:26, -65
2015/05/18 20:42, -69
2015/05/18 21:06, -69
2015/05/18 21:26, -65
2015/05/18 21:45, -66
2015/05/18 22:02, -67
2015/05/18 22:22, -65
2015/05/18 22:42, -65
2015/05/18 23:02, -66
2015/05/18 23:22, -69
2015/05/18 23:42, -66
2015/05/19 00:02, -61
2015/05/19 00:22, -63
2015/05/19 00:42, -65
2015/05/19 01:02, -65
2015/05/19 01:27, -60
2015/05/19 01:42, -66
2015/05/19 02:07, -65
2015/05/19 02:23, -60
2015/05/19 03:04, -61
2015/05/19 03:23, -64
2015/05/19 04:04, -61
2015/05/19 04:24, -67
2015/05/19 04:42, -68
2015/05/19 05:07, -67
2015/05/19 05:23, -67
2015/05/19 06:03, -70
2015/05/19 06:27, -68
2015/05/19 06:42, -65
2015/05/19 07:07, -67
2015/05/19 07:23, -65
2015/05/19 08:03, -63
2015/05/19 08:27, -67
2015/05/19 08:42, -65
2015/05/19 09:07, -66
2015/05/19 09:23, -68
2015/05/19 10:03, -67
2015/05/19 10:23, -68
2015/05/19 11:03, -68
2015/05/19 11:27, -63
2015/05/19 11:44, -64
2015/05/19 12:04, -59
2015/05/19 12:23, -62
2015/05/19 13:03, -64
2015/05/19 13:27, -72
2015/05/19 13:42, -62
2015/05/19 14:07, -61
2015/05/19 14:23, -67
2015/05/19 15:03, -64
2015/05/19 15:27, -62
2015/05/19 15:44, -61
2015/05/19 16:04, -64
2015/05/19 16:27, -68
2015/05/19 16:42, -70
2015/05/19 17:07, -70
2015/05/19 17:23, -67
2015/05/19 18:03, -70
2015/05/19 18:27, -64
2015/05/19 18:42, -68
2015/05/19 19:07, -71
2015/05/19 19:23, -67
2015/05/19 20:03, -63
2015/05/19 20:27, -68
2015/05/19 20:42, -64
2015/05/19 21:07, -62
2015/05/19 21:27, -70